Location: Bun Machan
(52.1403°N, 7.3744°W)
Time: 18:46:10
(UTC+00:00)

Meteor 1-19 Rocket - Pass Details

Date: 14 July 2020
Orbit: 811 x 924 km, 81.2° (Epoch: 12 August)

Event Time Altitude Azimuth Distance (km) Brightness Sun altitude
Rises 01:14:33 0° 348° (NNW) 3,468 8.7 -15.7°
Reaches altitude 10° 01:17:03 10° 351° (N) 2,509 7.8 -15.7°
Maximum altitude 01:22:42 65° 73° (ENE) 925 4.5 -15.5°
Enters shadow 01:27:11 16° 154° (SSE) 2,062 5.8 -15.4°
